Location: ????
(55.5675°N, 37.6272°E)
Time: 19:42:03
(UTC+00:00)

Cosmos 407 Rocket - Pass Details

Date: 14 April 2026
Orbit: 740 x 781 km, 74.0° (Epoch: 19 May)

Event Time Altitude Azimuth Distance (km) Brightness Sun altitude
Rises 19:49:04 0° 332° (NNW) 3,221 8.3 -21.5°
Reaches altitude 10° 19:51:30 10° 337° (NNW) 2,286 7.1 -21.7°
Maximum altitude 19:56:35 54° 55° (NE) 910 3.9 -22.0°
Enters shadow 19:58:01 41° 105° (ESE) 1,085 3.9 -22.0°
